Weather History for KHIF - November, 2011

Change the Weather History Date:

Saturday, November 5, 2011

  Actual Average Record
Temperature  
Mean Temperature 30 °F -  
Max Temperature 31 °F 47 °F 68 °F (1999)
Min Temperature 27 °F 32 °F 24 °F (2002)
Degree Days  
Heating Degree Days 36    
Moisture  
Dew Point 27 °F    
Average Humidity 88    
Maximum Humidity 100    
Minimum Humidity 55    
Precipitation  
Precipitation 0.17 in - - ()
Sea Level Pressure  
Sea Level Pressure 29.69 in    
Wind  
Wind Speed 7 mph (WNW)    
Max Wind Speed 12 mph    
Max Gust Speed -    
Visibility 5 miles    
Events Fog , Snow    
Averages and records for this station are not official NWS values.
T = Trace of Precipitation, MM = Missing Value Source: NWS Daily Summary

Daily Weather History Graph

Daily Weather History Graph

Search for Another Location

Airport or City:

Trip Planner

Search our weather history database for the weather conditions in past years. The results will help you decide how hot, cold, wet, or windy it might be!

Date:

Astronomy

Nov. 05, 2011 Rise Set
Actual Time 8:03 AM MDT 6:18 PM MDT
Civil Twilight 7:34 AM MDT 6:47 PM MDT
Nautical Twilight 7:01 AM MDT 7:20 PM MDT
Astronomical Twilight 6:29 AM MDT 7:52 PM MDT
Moon 3:40 PM MDT (11/5) 3:14 AM MDT (11/5)
Length of Visible Light 11h 13m
Length of Day
10h 15m
Waxing Gibbous, 78% of the Moon is Illuminated
Nov 5
Waxing Gibbous
Nov 10
Full
Nov 18
Last Quarter
Nov 24
New
Dec 2
First Quarter

Hourly Weather History & Observations

Time (MDT) Temp. Windchill Dew Point Humidity Pressure Visibility Wind Dir Wind Speed Gust Speed Precip Events Conditions
12:00 AM 32.0 °F 23.6 °F 30.2 °F 93% 29.62 in 1.2 mi West 10.4 mph - N/A Snow Light Snow
12:09 AM 32.0 °F 24.2 °F 30.2 °F 93% 29.60 in 1.0 mi WNW 9.2 mph - N/A Snow Light Snow
12:14 AM 32.0 °F 23.6 °F 30.2 °F 93% 29.60 in 0.8 mi WNW 10.4 mph - N/A Snow Light Snow
12:18 AM 32.0 °F 24.2 °F 30.2 °F 93% 29.59 in 0.8 mi WNW 9.2 mph - N/A Snow Light Snow
12:19 AM 32.0 °F 23.6 °F 30.2 °F 93% 29.59 in 0.8 mi WNW 10.4 mph - N/A Snow Light Snow
12:22 AM 32.0 °F 24.2 °F 30.2 °F 93% 29.59 in 0.5 mi WNW 9.2 mph - N/A Fog , Snow Light Freezing Fog
12:26 AM 32.0 °F 24.2 °F 30.2 °F 93% 29.59 in 0.8 mi WNW 9.2 mph - N/A Snow Light Snow
12:43 AM 32.0 °F 24.2 °F 30.2 °F 93% 29.58 in 0.5 mi WNW 9.2 mph - N/A Fog , Snow Light Freezing Fog
12:48 AM 32.0 °F 24.8 °F 30.2 °F 93% 29.59 in 0.8 mi WNW 8.1 mph - N/A Snow Light Snow
12:55 AM 31.5 °F 24.2 °F 30.4 °F 96% 29.59 in 0.8 mi WNW 8.1 mph - 0.03 in Snow Light Snow
1:04 AM 32.0 °F 26.4 °F 30.2 °F 93% 29.59 in 1.0 mi West 5.8 mph - N/A Snow Light Snow
1:08 AM 32.0 °F 25.6 °F 30.2 °F 93% 29.60 in 1.2 mi WNW 6.9 mph - N/A Snow Light Snow
1:18 AM 32.0 °F 25.6 °F 30.2 °F 93% 29.59 in 1.2 mi WNW 6.9 mph - N/A Snow Light Snow
1:27 AM 32.0 °F 25.6 °F 30.2 °F 93% 29.59 in 1.0 mi WNW 6.9 mph - N/A Snow Light Snow
1:31 AM 32.0 °F 27.5 °F 30.2 °F 93% 29.59 in 0.8 mi WNW 4.6 mph - N/A Snow Light Snow
1:41 AM 32.0 °F 26.4 °F 30.2 °F 93% 29.58 in 0.8 mi WNW 5.8 mph - N/A Snow Light Snow
1:54 AM 32.0 °F 26.4 °F 30.2 °F 93% 29.59 in 1.2 mi WNW 5.8 mph - N/A Snow Light Snow
1:55 AM 31.3 °F 25.6 °F 30.6 °F 97% 29.58 in 1.2 mi WNW 5.8 mph - 0.04 in Snow Light Snow
2:00 AM 32.0 °F 27.5 °F 30.2 °F 93% 29.58 in 1.0 mi WNW 4.6 mph - N/A Snow Light Snow
2:05 AM 32.0 °F 27.5 °F 30.2 °F 93% 29.58 in 1.2 mi WNW 4.6 mph - N/A Snow Light Snow
2:07 AM 32.0 °F 28.7 °F 30.2 °F 93% 29.58 in 1.0 mi WNW 3.5 mph - N/A Snow Light Snow
2:12 AM 32.0 °F 27.5 °F 30.2 °F 93% 29.58 in 1.0 mi WNW 4.6 mph - N/A Snow Light Snow
2:14 AM 32.0 °F 27.5 °F 30.2 °F 93% 29.58 in 0.8 mi WNW 4.6 mph - N/A Snow Light Snow
2:19 AM 32.0 °F 27.5 °F 30.2 °F 93% 29.57 in 0.8 mi WNW 4.6 mph - N/A Snow Light Snow
2:26 AM 32.0 °F 27.5 °F 30.2 °F 93% 29.58 in 0.8 mi West 4.6 mph - N/A Snow Light Snow
2:28 AM 32.0 °F 26.4 °F 30.2 °F 93% 29.58 in 1.0 mi West 5.8 mph - N/A Snow Light Snow
2:29 AM 32.0 °F 27.5 °F 30.2 °F 93% 29.58 in 1.0 mi West 4.6 mph - N/A Snow Light Snow
2:31 AM 32.0 °F 26.4 °F 30.2 °F 93% 29.58 in 1.2 mi WNW 5.8 mph - N/A Snow Light Snow
2:32 AM 32.0 °F 26.4 °F 30.2 °F 93% 29.58 in 1.5 mi WNW 5.8 mph - N/A Snow Light Snow
2:34 AM 32.0 °F 27.5 °F 30.2 °F 93% 29.57 in 2.0 mi WNW 4.6 mph - N/A Snow Light Snow
2:37 AM 32.0 °F 27.5 °F 30.2 °F 93% 29.58 in 3.0 mi WNW 4.6 mph - N/A Snow Light Snow
2:38 AM 32.0 °F 27.5 °F 30.2 °F 93% 29.58 in 2.5 mi WNW 4.6 mph - N/A Snow Light Snow
2:41 AM 32.0 °F 27.5 °F 30.2 °F 93% 29.58 in 1.8 mi WNW 4.6 mph - N/A Snow Light Snow
2:44 AM 32.0 °F 27.5 °F 30.2 °F 93% 29.57 in 1.5 mi West 4.6 mph - N/A Snow Light Snow
2:49 AM 32.0 °F 24.2 °F 30.2 °F 93% 29.56 in 1.8 mi West 9.2 mph - N/A Snow Light Snow
2:51 AM 30.2 °F 21.9 °F 30.2 °F 100% 29.56 in 2.0 mi West 9.2 mph - N/A Snow Light Snow
2:55 AM 30.9 °F 22.2 °F 30.0 °F 96% 29.57 in 2.5 mi West 10.4 mph - 0.02 in Snow Light Snow
2:59 AM 30.2 °F 21.9 °F 30.2 °F 100% 29.57 in 3.0 mi West 9.2 mph - N/A Snow Light Snow
3:03 AM 30.2 °F 21.9 °F 30.2 °F 100% 29.57 in 4.0 mi West 9.2 mph - N/A Snow Light Snow
3:05 AM 30.2 °F 21.3 °F 30.2 °F 100% 29.57 in 5.0 mi West 10.4 mph - N/A Snow Light Snow
3:08 AM 30.2 °F 21.9 °F 30.2 °F 100% 29.57 in 5.0 mi West 9.2 mph - N/A Snow Light Snow
3:12 AM 30.2 °F 23.4 °F 30.2 °F 100% 29.57 in 4.0 mi West 6.9 mph - N/A Snow Light Snow
3:14 AM 30.2 °F 23.4 °F 30.2 °F 100% 29.57 in 4.0 mi West 6.9 mph - N/A Snow Light Snow
3:15 AM 30.2 °F 23.4 °F 30.2 °F 100% 29.57 in 4.0 mi West 6.9 mph - N/A Snow Light Snow
3:21 AM 30.2 °F 23.4 °F 30.2 °F 100% 29.57 in 4.0 mi West 6.9 mph - N/A Snow Light Snow
3:24 AM 30.2 °F 22.6 °F 30.2 °F 100% 29.56 in 5.0 mi West 8.1 mph - N/A Snow Light Snow
3:55 AM 30.6 °F 23.1 °F 29.5 °F 96% 29.57 in 6.0 mi WNW 8.1 mph - 0.00 in Snow Light Snow
4:01 AM 30.2 °F 21.9 °F 30.2 °F 100% 29.59 in 4.0 mi WNW 9.2 mph - N/A Snow Light Snow
4:04 AM 30.2 °F 23.4 °F 30.2 °F 100% 29.59 in 3.0 mi WNW 6.9 mph - N/A Snow Light Snow
4:07 AM 30.2 °F 23.4 °F 30.2 °F 100% 29.59 in 3.0 mi WNW 6.9 mph - N/A Snow Light Snow
4:08 AM 30.2 °F 23.4 °F 30.2 °F 100% 29.59 in 2.5 mi WNW 6.9 mph - N/A Snow Light Snow
4:11 AM 30.2 °F 22.6 °F 30.2 °F 100% 29.59 in 2.5 mi WNW 8.1 mph - N/A Snow Light Snow
4:13 AM 30.2 °F 22.6 °F 30.2 °F 100% 29.60 in 3.0 mi WNW 8.1 mph - N/A Snow Light Snow
4:22 AM 30.2 °F 21.3 °F 30.2 °F 100% 29.61 in 4.0 mi West 10.4 mph - N/A   Overcast
4:24 AM 30.2 °F 20.8 °F 30.2 °F 100% 29.61 in 5.0 mi West 11.5 mph - N/A   Overcast
4:35 AM 30.2 °F 21.9 °F 28.4 °F 93% 29.62 in 5.0 mi West 9.2 mph - N/A Snow Light Snow
4:36 AM 30.2 °F 21.9 °F 28.4 °F 93% 29.61 in 4.0 mi WNW 9.2 mph - N/A Snow Light Snow
4:40 AM 30.2 °F 21.3 °F 28.4 °F 93% 29.62 in 2.5 mi WNW 10.4 mph - N/A Snow Light Snow
4:41 AM 30.2 °F 21.9 °F 28.4 °F 93% 29.62 in 2.5 mi WNW 9.2 mph - N/A Snow Light Snow
4:44 AM 30.2 °F 21.3 °F 28.4 °F 93% 29.62 in 2.0 mi WNW 10.4 mph - N/A Snow Light Snow
4:45 AM 30.2 °F 21.9 °F 28.4 °F 93% 29.62 in 2.0 mi WNW 9.2 mph - N/A Snow Light Snow
4:49 AM 30.2 °F 21.9 °F 28.4 °F 93% 29.62 in 2.0 mi West 9.2 mph - N/A Snow Light Snow
4:52 AM 30.2 °F 21.3 °F 28.4 °F 93% 29.62 in 3.0 mi WNW 10.4 mph - N/A Snow Light Snow
4:55 AM 30.0 °F 21.1 °F 29.1 °F 96% 29.62 in 4.0 mi West 10.4 mph - 0.03 in Snow Light Snow
4:56 AM 30.2 °F 21.3 °F 28.4 °F 93% 29.62 in 4.0 mi West 10.4 mph - N/A Snow Light Snow
5:01 AM 30.2 °F 20.8 °F 28.4 °F 93% 29.62 in 4.0 mi West 11.5 mph - N/A Snow Light Snow
5:05 AM 30.2 °F 21.3 °F 28.4 °F 93% 29.62 in 4.0 mi West 10.4 mph - N/A Snow Light Snow
5:10 AM 30.2 °F 22.6 °F 28.4 °F 93% 29.62 in 3.0 mi WNW 8.1 mph - N/A Snow Light Snow
5:27 AM 30.2 °F 22.6 °F 28.4 °F 93% 29.64 in 4.0 mi WNW 8.1 mph - N/A Snow Light Snow
5:39 AM 30.2 °F 22.6 °F 28.4 °F 93% 29.62 in 3.0 mi WNW 8.1 mph - N/A Snow Light Snow
5:41 AM 30.2 °F 21.9 °F 28.4 °F 93% 29.62 in 2.5 mi WNW 9.2 mph - N/A Snow Light Snow
5:47 AM 30.2 °F 20.8 °F 28.4 °F 93% 29.62 in 2.0 mi NW 11.5 mph - N/A Snow Light Snow
5:49 AM 30.2 °F 20.8 °F 28.4 °F 93% 29.62 in 2.5 mi WNW 11.5 mph - N/A Snow Light Snow
5:50 AM 30.2 °F 20.8 °F 28.4 °F 93% 29.62 in 3.0 mi WNW 11.5 mph - N/A Snow Light Snow
5:53 AM 30.2 °F 20.8 °F 28.4 °F 93% 29.62 in 6.0 mi NW 11.5 mph - N/A Snow Light Snow
5:55 AM 29.5 °F 19.9 °F 28.2 °F 95% 29.62 in 9.0 mi WNW 11.5 mph - 0.01 in Snow Light Snow
6:47 AM 28.4 °F 19.1 °F 26.6 °F 93% 29.66 in 6.0 mi WNW 10.4 mph - N/A Snow Light Snow
6:48 AM 28.4 °F 19.7 °F 26.6 °F 93% 29.66 in 6.0 mi WNW 9.2 mph - N/A Snow Light Snow
6:50 AM 28.4 °F 19.7 °F 26.6 °F 93% 29.66 in 7.0 mi WNW 9.2 mph - N/A Snow Light Snow
6:51 AM 28.4 °F 19.7 °F 26.6 °F 93% 29.66 in 7.0 mi WNW 9.2 mph - N/A Snow Light Snow
6:55 AM 28.9 °F 21.1 °F 27.1 °F 93% 29.66 in 9.0 mi WNW 8.1 mph - 0.00 in Snow Light Snow
7:18 AM 28.4 °F 21.2 °F 26.6 °F 93% 29.67 in 10.0 mi NW 6.9 mph - N/A   Overcast
7:24 AM 28.4 °F 20.4 °F 26.6 °F 93% 29.67 in 10.0 mi NW 8.1 mph - N/A   Overcast
7:55 AM 28.9 °F 21.1 °F 26.6 °F 91% 29.69 in 10.0 mi NW 8.1 mph - 0.00 in   Overcast
8:15 AM 28.4 °F 19.7 °F 26.6 °F 93% 29.70 in 10.0 mi NW 9.2 mph - N/A   Overcast
8:20 AM 28.4 °F 21.2 °F 26.6 °F 93% 29.70 in 10.0 mi WNW 6.9 mph - N/A   Overcast
8:27 AM 28.4 °F 20.4 °F 24.8 °F 86% 29.71 in 10.0 mi NW 8.1 mph - N/A   Overcast
8:50 AM 28.4 °F 20.4 °F 24.8 °F 86% 29.73 in 10.0 mi WNW 8.1 mph - N/A   Overcast
8:55 AM 28.9 °F 22.8 °F 25.5 °F 87% 29.73 in 10.0 mi WNW 5.8 mph - N/A   Overcast
9:55 AM 29.8 °F 24.9 °F 26.1 °F 86% 29.75 in 10.0 mi WNW 4.6 mph - N/A   Overcast
10:23 AM 30.2 °F 24.3 °F 24.8 °F 80% 29.76 in 10.0 mi NW 5.8 mph - N/A   Mostly Cloudy
10:55 AM 30.4 °F 24.5 °F 25.3 °F 82% 29.77 in 10.0 mi NW 5.8 mph - N/A   Overcast
11:48 AM 30.2 °F 25.4 °F 24.8 °F 80% 29.78 in 9.0 mi SSW 4.6 mph - N/A Snow Light Snow
11:55 AM 30.6 °F - 23.9 °F 76% 29.78 in 6.0 mi Calm Calm - 0.00 in Snow Light Snow
12:02 PM 30.2 °F 24.3 °F 24.8 °F 80% 29.80 in 1.8 mi SW 5.8 mph - N/A Snow Light Snow
12:06 PM 30.2 °F 26.7 °F 24.8 °F 80% 29.80 in 0.8 mi WNW 3.5 mph - N/A Snow Light Snow
12:15 PM 30.2 °F - 26.6 °F 86% 29.80 in 1.2 mi Calm Calm - N/A Snow Light Snow
12:16 PM 30.2 °F - 26.6 °F 86% 29.80 in 1.5 mi Calm Calm - N/A Snow Light Snow
12:18 PM 30.2 °F 23.4 °F 26.6 °F 86% 29.80 in 2.5 mi SE 6.9 mph - N/A Snow Light Snow
12:19 PM 30.2 °F 22.6 °F 26.6 °F 86% 29.80 in 3.0 mi ESE 8.1 mph - N/A Snow Light Snow
12:28 PM 30.2 °F 24.3 °F 26.6 °F 86% 29.81 in 3.0 mi East 5.8 mph - N/A Snow Light Snow
12:35 PM 30.2 °F 24.3 °F 26.6 °F 86% 29.81 in 5.0 mi East 5.8 mph - N/A Snow Light Snow
12:57 PM 28.4 °F 24.6 °F 26.6 °F 93% 29.81 in 1.5 mi West 3.5 mph - N/A Snow Light Snow
1:01 PM 28.4 °F - 26.6 °F 93% 29.81 in 1.2 mi Calm Calm - N/A Snow Light Snow
1:05 PM 28.4 °F - 24.8 °F 86% 29.81 in 1.2 mi Calm Calm - N/A Snow Light Snow
1:06 PM 28.4 °F 24.6 °F 24.8 °F 86% 29.81 in 1.5 mi NW 3.5 mph - N/A Snow Light Snow
1:08 PM 28.4 °F 23.3 °F 26.6 °F 93% 29.81 in 1.8 mi WNW 4.6 mph - N/A Snow Light Snow
1:09 PM 28.4 °F 22.2 °F 26.6 °F 93% 29.81 in 2.0 mi WNW 5.8 mph - N/A Snow Light Snow
1:12 PM 28.4 °F 22.2 °F 26.6 °F 93% 29.81 in 5.0 mi NW 5.8 mph - N/A Snow Light Snow
1:17 PM 28.4 °F 23.3 °F 26.6 °F 93% 29.81 in 10.0 mi NW 4.6 mph - N/A Snow Light Snow
1:28 PM 28.4 °F 23.3 °F 26.6 °F 93% 29.81 in 10.0 mi NNW 4.6 mph - N/A Snow Light Snow
1:33 PM 28.4 °F - 26.6 °F 93% 29.81 in 10.0 mi Calm Calm - N/A   Mostly Cloudy
1:55 PM 29.7 °F - 26.2 °F 87% 29.81 in 10.0 mi Calm Calm - 0.03 in   Partly Cloudy
2:04 PM 30.2 °F - 24.8 °F 80% 29.80 in 10.0 mi Calm Calm - N/A   Mostly Cloudy
2:18 PM 30.2 °F - 24.8 °F 80% 29.81 in 10.0 mi Calm Calm - N/A   Overcast
2:24 PM 30.2 °F - 24.8 °F 80% 29.81 in 10.0 mi Calm Calm - N/A   Overcast
2:55 PM 30.9 °F 24.3 °F 20.8 °F 66% 29.82 in 10.0 mi SE 6.9 mph - 0.01 in   Overcast
3:04 PM 30.2 °F 25.4 °F 21.2 °F 69% 29.82 in 10.0 mi South 4.6 mph - N/A   Overcast
3:09 PM 32.0 °F 26.4 °F 21.2 °F 64% 29.83 in 10.0 mi South 5.8 mph - N/A   Overcast
3:41 PM 32.0 °F 28.7 °F 19.4 °F 60% 29.83 in 10.0 mi South 3.5 mph - N/A   Overcast
3:55 PM 30.7 °F 26.0 °F 21.9 °F 70% 29.83 in 10.0 mi East 4.6 mph - N/A   Overcast
4:55 PM 30.2 °F 21.9 °F 22.3 °F 72% 29.84 in 10.0 mi East 9.2 mph - N/A   Overcast
5:55 PM 30.0 °F 22.4 °F 21.7 °F 71% 29.86 in 10.0 mi ESE 8.1 mph - N/A   Overcast
6:55 PM 28.9 °F 19.2 °F 20.7 °F 71% 29.89 in 10.0 mi ESE 11.5 mph - N/A   Mostly Cloudy
7:55 PM 29.3 °F 19.6 °F 19.8 °F 68% 29.91 in 10.0 mi ESE 11.5 mph - N/A   Mostly Cloudy
8:18 PM 28.4 °F 18.5 °F 19.4 °F 69% 29.91 in 10.0 mi ESE 11.5 mph - N/A   Scattered Clouds
8:55 PM 28.4 °F 18.5 °F 17.4 °F 63% 29.91 in 10.0 mi SE 11.5 mph - N/A   Clear
9:55 PM 27.7 °F 18.2 °F 18.1 °F 67% 29.92 in 10.0 mi SE 10.4 mph - N/A   Clear
10:55 PM 28.8 °F 20.2 °F 18.5 °F 66% 29.91 in 10.0 mi SE 9.2 mph - N/A   Clear
11:07 PM 28.4 °F 21.2 °F 17.6 °F 64% 29.91 in 10.0 mi SE 6.9 mph - N/A   Mostly Cloudy
11:43 PM 30.2 °F 26.7 °F 15.8 °F 55% 29.92 in 10.0 mi Variable 3.5 mph - N/A   Overcast
11:45 PM 30.2 °F - 15.8 °F 55% 29.92 in 10.0 mi Calm Calm - N/A   Overcast
11:48 PM 30.2 °F - 15.8 °F 55% 29.92 in 10.0 mi Calm Calm - N/A   Overcast
11:50 PM 30.2 °F - 15.8 °F 55% 29.92 in 10.0 mi Calm Calm - N/A   Mostly Cloudy
11:52 PM 30.2 °F - 15.8 °F 55% 29.92 in 10.0 mi Calm Calm - N/A   Mostly Cloudy
11:55 PM 30.6 °F - 16.5 °F 56% 29.92 in 10.0 mi Calm Calm - N/A   Mostly Cloudy